Location: Unspecified
(49.2170°N, 0.0000°E)
Time: 22:45:56
(UTC+00:00)

Transit 2A - Pass Details

Date: 19 June 2019
Orbit: 600 x 958 km, 66.7° (Epoch: 21 October)

Event Time Altitude Azimuth Distance (km) Brightness Sun altitude
Rises 10:50:35 0° 316° (NW) 3,439 9.1 60.7°
Reaches altitude 10° 10:53:39 10° 302° (WNW) 2,433 8.4 61.0°
Maximum altitude 10:57:49 22° 254° (WSW) 1,656 8.0 61.3°
Drops below altitude 10° 11:01:41 10° 204° (SSW) 2,236 8.8 61.7°
Sets 11:04:23 0° 189° (S) 3,088 9.5 61.9°
